DW3263 Weather Reports


time (UTC)temp
C
wind
direction
speed
KPH
gust
KPH
rain 1hr
cm
rain 24hr
cm
rain mn
cm
humidity
%
barometer
mb
20260906002019 19 0.0 0.0 0.00 0.00 0.00 100 1011.0
20260906001019 20 0.0 0.0 0.00 0.00 0.00 100 1010.7
20260906000448 20 0.0 0.0 0.00 0.00 0.00 100 1010.5
20260905235020 20 0.0 0.0 0.00 0.00 0.00 10 1010.4
20260905234020 21 0.0 0.0 0.00 0.00 0.00 29 1010.4
20260905233019 21 0.0 0.0 0.00 0.00 0.00 40 1010.4
20260905232232 22 0.0 0.0 0.00 0.00 0.00 51 1010.4
20260905231020 23 0.0 0.0 0.00 0.00 0.00 60 1010.4
20260905230229 24 0.0 1.6 0.00 0.00 0.00 64 1010.4
20260905225019 25 0.0 3.2 0.00 0.00 0.00 64 1010.4
20260905224020 25 0.0 3.2 0.00 0.00 0.00 64 1010.3
20260905223020 25 0 1.6 6.4 0.00 0.00 0.00 61 1010.2
20260905222233 25 0 3.2 11.3 0.00 0.00 0.00 60 1010.3
20260905221019 25 0 3.2 9.7 0.00 0.00 0.00 59 1010.3
20260905220019 26 0 1.6 6.4 0.00 0.00 0.00 60 1010.3
20260905215230 26 0 1.6 6.4 0.00 0.00 0.00 58 1010.2
20260905214020 26 0 3.2 8.0 0.00 0.00 0.00 57 1010.2
20260905213020 26 0 1.6 4.8 0.00 0.00 0.00 58 1010.1
20260905212020 26 0 3.2 4.8 0.00 0.00 0.00 58 1010.0
20260905211019 26 0 1.6 4.8 0.00 0.00 0.00 59 1010.0
20260905210020 26 0 3.2 6.4 0.00 0.00 0.00 60 1010.0
20260905205020 26 0 1.6 6.4 0.00 0.00 0.00 58 1010.1
20260905204232 26 0 1.6 11.3 0.00 0.00 0.00 58 1010.1
20260905203019 26 0 1.6 6.4 0.00 0.00 0.00 59 1010.0
20260905202020 26 338 3.2 12.9 0.00 0.00 0.00 58 1010.0
20260905201020 26 338 3.2 9.7 0.00 0.00 0.00 61 1010.0
20260905200019 25 338 1.6 4.8 0.00 0.00 0.00 62 1010.1
20260905195020 26 0.0 3.2 0.00 0.00 0.00 62 1010.2
20260905194020 26 338 3.2 9.7 0.00 0.00 0.00 60 1010.2
20260905193234 26 338 3.2 6.4 0.00 0.00 0.00 60 1010.2
20260905192020 26 338 3.2 9.7 0.00 0.00 0.00 61 1010.3
20260905191020 26 315 1.6 9.7 0.00 0.00 0.00 62 1010.2
20260905190020 25 315 1.6 8.0 0.00 0.00 0.00 63 1010.3
20260905185020 25 315 1.6 6.4 0.00 0.00 0.00 62 1010.3
20260905184019 25 315 1.6 6.4 0.00 0.00 0.00 63 1010.5
20260905183020 24 315 1.6 3.2 0.00 0.00 0.00 63 1010.5
20260905182230 24 315 1.6 4.8 0.00 0.00 0.00 63 1010.6
20260905181020 25 315 1.6 4.8 0.00 0.00 0.00 63 1010.6
20260905180020 25 315 1.6 8.0 0.00 0.00 0.00 63 1010.7
20260905175020 25 315 1.6 8.0 0.00 0.00 0.00 63 1010.8
20260905174020 25 0.0 1.6 0.00 0.00 0.00 64 1010.8
20260905173230 25 315 1.6 6.4 0.00 0.00 0.00 63 1010.9
20260905172020 26 315 1.6 8.0 0.00 0.00 0.00 63 1011.0
20260905171020 26 315 3.2 9.7 0.00 0.00 0.00 64 1011.2
20260905170020 25 315 3.2 9.7 0.00 0.00 0.00 63 1011.3
20260905165019 25 315 1.6 6.4 0.00 0.00 0.00 63 1011.5
20260905164020 25 315 1.6 6.4 0.00 0.00 0.00 63 1011.5
20260905163021 25 315 1.6 6.4 0.00 0.00 0.00 63 1011.4
20260905162020 24 315 1.6 6.4 0.00 0.00 0.00 64 1011.6
20260905161020 24 315 3.2 12.9 0.00 0.00 0.00 64 1011.7
20260905160233 24 315 1.6 4.8 0.00 0.00 0.00 64 1011.8
20260905155020 24 315 1.6 6.4 0.00 0.00 0.00 64 1011.9
20260905154020 24 315 1.6 8.0 0.00 0.00 0.00 63 1011.9
20260905153020 23 0.0 3.2 0.00 0.00 0.00 61 1012.0
20260905152232 23 315 1.6 4.8 0.00 0.00 0.00 62 1011.9
20260905151020 23 315 6.4 11.3 0.00 0.00 0.00 62 1011.9
20260905150020 23 315 1.6 4.8 0.00 0.00 0.00 62 1011.9
20260905145021 23 315 3.2 8.0 0.00 0.00 0.00 62 1011.8
20260905144020 23 315 4.8 11.3 0.00 0.00 0.00 63 1011.9
20260905143020 24 315 3.2 6.4 0.00 0.00 0.00 60 1011.9
20260905142020 24 315 1.6 4.8 0.00 0.00 0.00 60 1011.7
20260905141020 23 315 1.6 8.0 0.00 0.00 0.00 59 1011.5
20260905140020 23 315 3.2 6.4 0.00 0.00 0.00 61 1011.3
20260905135020 23 315 1.6 4.8 0.00 0.00 0.00 48 1011.4
20260905134020 23 315 1.6 8.0 0.00 0.00 0.00 59 1011.5
20260905133020 23 315 1.6 11.3 0.00 0.00 0.00 53 1011.7
20260905132233 22 315 1.6 4.8 0.00 0.00 0.00 44 1011.6
20260905131020 22 315 1.6 4.8 0.00 0.00 0.00 46 1011.6
20260905130020 22 0.0 3.2 0.00 0.00 0.00 35 1011.6
20260905125020 22 0.0 0.0 0.00 0.00 0.00 14 1011.5
20260905124232 22 315 1.6 3.2 0.00 0.00 0.00 6 1011.5
20260905123020 22 315 3.2 6.4 0.00 0.00 0.00 11 1011.4
20260905122020 22 315 1.6 4.8 0.00 0.00 0.00 100 1011.2
20260905121020 22 0.0 3.2 0.00 0.00 0.00 100 1011.1
20260905120021 21 0.0 0.0 0.00 0.00 0.00 100 1011.1
20260905115020 20 0.0 0.0 0.00 0.00 0.00 100 1011.1
20260905114020 19 0.0 1.6 0.00 0.00 0.00 100 1011.3
20260905113020 18 0.0 1.6 0.00 0.00 0.00 100 1011.0
20260905112020 18 0.0 0.0 0.00 0.00 0.00 100 1010.9
20260905111020 18 0.0 0.0 0.00 0.00 0.00 100 1010.9
20260905110020 18 0.0 0.0 0.00 0.00 0.00 100 1010.8
20260905105020 18 0.0 0.0 0.00 0.00 0.00 100 1010.8
20260905104020 19 0.0 0.0 0.00 0.00 0.00 100 1010.6
20260905103020 20 0.0 0.0 0.00 0.00 0.00 100 1010.4
20260905102020 20 0.0 0.0 0.00 0.00 0.00 100 1010.4
20260905101020 21 0.0 0.0 0.00 0.00 0.00 100 1010.5
20260905100019 21 315 1.6 4.8 0.00 0.00 0.00 100 1010.3
20260905095019 21 0.0 1.6 0.00 0.00 0.00 100 1010.2
20260905094020 21 0.0 1.6 0.00 0.00 0.00 100 1010.3
20260905093020 21 315 1.6 4.8 0.00 0.00 0.00 100 1010.2
20260905092444 21 0.0 3.2 0.00 0.00 0.00 100 1010.1
20260905091018 22 0.0 3.2 0.00 0.00 0.00 100 1010.2
20260905090233 22 315 1.6 8.0 0.00 0.00 0.00 100 1010.1
20260905085019 21 0.0 4.8 0.00 0.00 0.00 100 1010.1
20260905084230 21 0.0 4.8 0.00 0.00 0.00 100 1010.1
20260905083020 21 315 1.6 6.4 0.00 0.00 0.00 100 1010.1
20260905082020 20 315 1.6 4.8 0.00 0.00 0.00 100 1010.1
20260905081018 20 315 1.6 4.8 0.00 0.00 0.00 100 1010.2
20260905080021 20 0.0 1.6 0.00 0.00 0.00 100 1010.3
20260905075020 20 0.0 0.0 0.00 0.00 0.00 100 1010.2
20260905074019 20 0.0 3.2 0.00 0.00 0.00 100 1010.1
20260905073018 20 0.0 3.2 0.00 0.00 0.00 100 1010.2
20260905072021 20 0.0 0.0 0.00 0.00 0.00 100 1010.2
20260905071233 20 0.0 1.6 0.00 0.00 0.00 100 1010.3
20260905070019 20 0.0 0.0 0.00 0.00 0.00 100 1010.3
20260905065019 20 0.0 3.2 0.00 0.00 0.00 100 1010.5
20260905064020 20 315 1.6 4.8 0.00 0.00 0.00 100 1010.5
20260905063019 20 315 3.2 6.4 0.00 0.00 0.00 100 1010.7
20260905062019 20 315 1.6 3.2 0.00 0.00 0.00 100 1010.7
20260905061234 21 0.0 1.6 0.00 0.00 0.00 100 1010.6
20260905060020 21 0.0 1.6 0.00 0.00 0.00 100 1010.7
20260905055019 21 315 1.6 3.2 0.00 0.00 0.00 100 1010.7
20260905054020 21 315 1.6 6.4 0.00 0.00 0.00 100 1010.9
20260905053019 21 315 1.6 8.0 0.00 0.00 0.00 100 1010.8
20260905052020 21 315 1.6 4.8 0.00 0.00 0.00 100 1011.0
20260905051020 21 0.0 1.6 0.00 0.00 0.00 100 1011.1
20260905050019 21 0.0 3.2 0.00 0.00 0.00 100 1011.3
20260905045018 21 315 1.6 6.4 0.00 0.00 0.00 100 1011.5
20260905044020 21 315 3.2 6.4 0.00 0.00 0.00 100 1011.5
20260905043019 21 315 3.2 9.7 0.00 0.00 0.00 100 1011.4
20260905042019 21 315 1.6 6.4 0.00 0.00 0.00 100 1011.3
20260905041020 20 0.0 0.0 0.00 0.00 0.00 100 1011.3
20260905040019 20 0.0 0.0 0.00 0.00 0.00 100 1011.2
20260905035019 20 0.0 0.0 0.00 0.00 0.00 100 1011.2
20260905034020 20 0.0 0.0 0.00 0.00 0.00 100 1011.2
20260905033020 21 0.0 1.6 0.00 0.03 0.00 100 1011.1
20260905032020 21 0.0 1.6 0.00 0.03 0.00 100 1011.1
20260905031020 21 0.0 0.0 0.00 0.03 0.00 100 1010.9
20260905030020 21 0.0 3.2 0.00 0.03 0.00 100 1010.9
20260905025020 21 0.0 1.6 0.00 0.03 0.00 100 1010.9
20260905024020 21 315 1.6 4.8 0.00 0.03 0.00 100 1010.8
20260905023032 22 0.0 3.2 0.00 0.03 0.00 100 1010.8
20260905022020 22 0.0 0.0 0.00 0.03 0.00 100 1010.7
20260905021231 23 0.0 0.0 0.00 0.03 0.00 100 1010.7
20260905020020 23 0.0 0.0 0.00 0.03 0.00 100 1010.6
20260905015020 24 0.0 3.2 0.00 0.03 0.00 100 1010.7
20260905014020 25 315 1.6 6.4 0.00 0.05 0.00 100 1010.7
20260905013020 25 315 3.2 6.4 0.00 0.08 0.00 100 1010.7
20260905012020 24 315 3.2 8.0 0.00 0.08 0.00 100 1010.7
20260905011232 24 315 1.6 6.4 0.00 0.08 0.00 100 1010.6
20260905010020 23 315 1.6 3.2 0.00 0.08 0.00 100 1010.5
20260905005234 23 0.0 1.6 0.00 0.08 0.00 100 1010.5
20260905004020 23 0.0 0.0 0.00 0.08 0.00 100 1010.6
20260905003020 24 0.0 1.6 0.00 0.08 0.00 100 1010.5